Change the Weather History Date:

Sunday, July 21, 2013

  Actual Average (KTYR) Record (KTYR)
Temperature  
Mean Temperature 80 °F 83 °F  
Max Temperature 90 °F 93 °F 105 °F (1920)
Min Temperature 71 °F 74 °F 59 °F (1970)
Degree Days  
Heating Degree Days 0 0  
Month to date heating degree days 0  
Since 1 June heating degree days 0  
Since 1 July heating degree days 0  
Cooling Degree Days 16 18  
Month to date cooling degree days 369  
Year to date cooling degree days 1171  
Since 1 June cooling degree days 802  
Growing Degree Days 30 (Base 50)    
Moisture  
Dew Point 70 °F    
Average Humidity 77    
Maximum Humidity 95    
Minimum Humidity 47    
Precipitation  
Precipitation 0.00 in 0.06 in 1.87 in (2009)
Month to date precipitation 2.09  
Year to date precipitation 25.85  
Snow  
Snow 0.00 in - - ()
Month to date snowfall  
Since 1 June snowfall  
Since 1 July snowfall  
Snow Depth -    
Sea Level Pressure  
Sea Level Pressure 29.97 in    
Wind  
Wind Speed 6 mph (South)    
Max Wind Speed 15 mph    
Max Gust Speed 24 mph    
Visibility 8 miles    
Events Fog    
T = Trace of Precipitation, MM = Missing Value Source: NWS Daily Summary

Daily Weather History Graph

Daily Weather History Graph

Search for Another Location

Airport or City:

Trip Planner

Search our weather history database for the weather conditions in past years. The results will help you decide how hot, cold, wet, or windy it might be!

Date:

Astronomy

Jul. 21, 2013 Rise Set
Actual Time 6:29 AM CDT 8:24 PM CDT
Civil Twilight 6:02 AM CDT 8:51 PM CDT
Nautical Twilight 5:29 AM CDT 9:24 PM CDT
Astronomical Twilight 4:54 AM CDT 9:59 PM CDT
Moon 7:26 PM CDT (7/21) 5:15 AM CDT (7/21)
Length of Visible Light 14h 49m
Length of Day
13h 55m
Waxing Gibbous, 98% of the Moon is Illuminated
Jul 21
Waxing Gibbous
Jul 22
Full
Jul 29
Last Quarter
Aug 6
New
Aug 14
First Quarter

Hourly Weather History & Observations

Time (CDT) Temp. Heat Index Dew Point Humidity Pressure Visibility Wind Dir Wind Speed Gust Speed Precip Events Conditions
12:15 AM 71.8 °F - 68.2 °F 88% 29.97 in 10.0 mi SSE 3.5 mph - N/A   Clear
12:35 AM 71.6 °F - 68.2 °F 89% 29.97 in 10.0 mi Calm Calm - N/A   Clear
12:55 AM 71.1 °F - 68.2 °F 91% 29.97 in 10.0 mi SSE 3.5 mph - N/A   Clear
1:15 AM 71.6 °F - 68.4 °F 89% 29.97 in 10.0 mi SSE 4.6 mph - N/A   Clear
1:35 AM 71.8 °F - 68.2 °F 88% 29.97 in 10.0 mi South 5.8 mph - N/A   Clear
1:55 AM 71.8 °F - 68.0 °F 88% 29.96 in 10.0 mi South 6.9 mph - N/A   Clear
2:15 AM 71.6 °F - 68.0 °F 88% 29.97 in 10.0 mi South 6.9 mph - N/A   Clear
2:35 AM 71.6 °F - 68.2 °F 89% 29.97 in 10.0 mi South 5.8 mph - N/A   Clear
2:55 AM 71.6 °F - 68.4 °F 89% 29.97 in 10.0 mi South 8.1 mph - N/A   Clear
3:15 AM 71.6 °F - 68.9 °F 91% 29.97 in 10.0 mi South 9.2 mph - N/A   Clear
3:35 AM 71.6 °F - 69.1 °F 92% 29.97 in 7.0 mi South 6.9 mph - N/A   Clear
3:55 AM 71.6 °F - 69.4 °F 93% 29.97 in 7.0 mi South 6.9 mph - N/A   Scattered Clouds
4:15 AM 72.1 °F - 70.0 °F 93% 29.97 in 5.0 mi South 8.1 mph - N/A   Overcast
4:35 AM 71.6 °F - 69.8 °F 94% 29.97 in 1.2 mi South 6.9 mph - N/A   Overcast
4:55 AM 71.6 °F - 69.8 °F 94% 29.96 in 0.5 mi South 5.8 mph - N/A Fog Fog
5:15 AM 71.6 °F - 69.8 °F 94% 29.97 in 0.5 mi South 5.8 mph - N/A Fog Fog
5:35 AM 71.6 °F - 69.8 °F 94% 29.98 in 0.2 mi South 5.8 mph - N/A Fog Fog
5:55 AM 71.6 °F - 69.8 °F 94% 29.97 in 0.5 mi South 3.5 mph - N/A Fog Fog
6:15 AM 71.6 °F - 70.0 °F 95% 29.98 in 0.5 mi South 4.6 mph - N/A Fog Fog
6:35 AM 71.8 °F - 70.3 °F 95% 29.98 in 0.5 mi South 4.6 mph - N/A Fog Fog
6:55 AM 72.1 °F - 70.7 °F 95% 29.98 in 0.5 mi South 4.6 mph - N/A Fog Fog
7:15 AM 72.5 °F - 70.9 °F 95% 29.99 in 0.8 mi South 5.8 mph - N/A   Overcast
7:35 AM 72.9 °F - 71.2 °F 95% 30.00 in 1.2 mi South 5.8 mph - N/A   Overcast
7:55 AM 73.0 °F - 71.6 °F 95% 30.00 in 1.5 mi South 4.6 mph - N/A   Overcast
8:15 AM 73.4 °F - 71.6 °F 94% 30.01 in 4.0 mi South 4.6 mph - N/A   Overcast
8:35 AM 74.1 °F - 72.0 °F 93% 30.01 in 5.0 mi South 6.9 mph - N/A   Overcast
8:55 AM 75.4 °F - 72.5 °F 91% 30.01 in 7.0 mi South 6.9 mph - N/A   Overcast
9:15 AM 76.1 °F - 72.1 °F 87% 30.01 in 10.0 mi South 6.9 mph - N/A   Overcast
9:35 AM 77.2 °F - 72.3 °F 85% 30.01 in 10.0 mi SSW 5.8 mph - N/A   Overcast
9:55 AM 78.3 °F - 72.0 °F 81% 30.01 in 10.0 mi SW 6.9 mph - N/A   Overcast
10:15 AM 79.0 °F - 71.4 °F 78% 30.01 in 10.0 mi SW 6.9 mph - N/A   Mostly Cloudy
10:35 AM 81.9 °F 86.4 °F 71.6 °F 71% 30.01 in 10.0 mi SSW 6.9 mph - N/A   Mostly Cloudy
10:55 AM 82.0 °F 86.1 °F 70.7 °F 68% 30.01 in 10.0 mi SSW 5.8 mph - N/A   Mostly Cloudy
11:15 AM 83.3 °F 87.1 °F 69.6 °F 63% 30.01 in 10.0 mi SSW 8.1 mph - N/A   Clear
11:35 AM 84.2 °F 88.1 °F 69.6 °F 61% 30.01 in 10.0 mi SW 6.9 mph - N/A   Scattered Clouds
11:55 AM 84.7 °F 88.5 °F 68.9 °F 59% 30.01 in 10.0 mi South 9.2 mph - N/A   Scattered Clouds
12:15 PM 84.9 °F 88.5 °F 68.7 °F 58% 30.01 in 10.0 mi South 8.1 mph - N/A   Scattered Clouds
1:15 PM 85.8 °F 88.8 °F 67.3 °F 54% 29.99 in 10.0 mi WSW 5.8 mph - N/A   Scattered Clouds
1:35 PM 85.8 °F 89.7 °F 68.9 °F 57% 29.98 in 10.0 mi SSW 4.6 mph - N/A   Scattered Clouds
1:55 PM 86.7 °F 90.6 °F 68.7 °F 55% 29.98 in 10.0 mi South 4.6 mph - N/A   Scattered Clouds
2:15 PM 88.3 °F 92.0 °F 68.4 °F 51% 29.97 in 10.0 mi South 5.8 mph - N/A   Scattered Clouds
2:35 PM 87.6 °F 91.1 °F 68.0 °F 52% 29.97 in 10.0 mi South 5.8 mph - N/A   Scattered Clouds
2:55 PM 88.5 °F 91.9 °F 68.0 °F 50% 29.96 in 10.0 mi SSW 6.9 mph - N/A   Scattered Clouds
3:15 PM 88.9 °F 92.6 °F 68.2 °F 50% 29.96 in 10.0 mi SSW 3.5 mph - N/A   Scattered Clouds
3:35 PM 89.8 °F 93.8 °F 68.5 °F 49% 29.95 in 10.0 mi South 5.8 mph - N/A   Clear
3:55 PM 90.1 °F 93.5 °F 67.5 °F 47% 29.94 in 10.0 mi SSW 4.6 mph - N/A   Scattered Clouds
4:15 PM 89.8 °F 93.3 °F 67.5 °F 48% 29.94 in 10.0 mi SSW 4.6 mph - N/A   Clear
4:35 PM 89.8 °F 93.3 °F 67.5 °F 48% 29.94 in 10.0 mi South 3.5 mph - N/A   Clear
4:55 PM 90.1 °F 94.4 °F 68.9 °F 49% 29.94 in 10.0 mi SSE 5.8 mph - N/A   Mostly Cloudy
5:15 PM 83.3 °F 87.4 °F 69.8 °F 64% 29.95 in 10.0 mi South 15.0 mph 24.2 mph N/A   Overcast
5:35 PM 83.8 °F 89.2 °F 71.8 °F 67% 29.95 in 10.0 mi SSE 11.5 mph - N/A   Mostly Cloudy
5:55 PM 84.0 °F 89.0 °F 71.2 °F 65% 29.94 in 10.0 mi South 12.7 mph 20.7 mph N/A   Clear
6:15 PM 83.7 °F 87.5 °F 69.3 °F 62% 29.94 in 10.0 mi South 13.8 mph 18.4 mph N/A   Clear
6:35 PM 83.5 °F 86.9 °F 68.9 °F 61% 29.94 in 10.0 mi South 10.4 mph - N/A   Clear
6:55 PM 82.8 °F 86.2 °F 69.1 °F 63% 29.94 in 10.0 mi South 11.5 mph 18.4 mph N/A   Clear
7:15 PM 82.6 °F 86.4 °F 69.8 °F 65% 29.94 in 10.0 mi South 8.1 mph - N/A   Clear
7:35 PM 82.4 °F 86.3 °F 70.2 °F 66% 29.94 in 10.0 mi South 6.9 mph - N/A   Clear
7:55 PM 81.5 °F 85.5 °F 70.7 °F 70% 29.94 in 10.0 mi South 6.9 mph - N/A   Clear
8:15 PM 80.6 °F 84.4 °F 71.1 °F 73% 29.94 in 10.0 mi South 6.9 mph - N/A   Clear
8:35 PM 79.7 °F - 71.2 °F 75% 29.94 in 10.0 mi South 6.9 mph - N/A   Clear
8:55 PM 79.3 °F - 71.6 °F 77% 29.95 in 10.0 mi South 6.9 mph - N/A   Clear
9:15 PM 78.8 °F - 71.8 °F 79% 29.95 in 10.0 mi South 5.8 mph - N/A   Clear
9:35 PM 78.1 °F - 72.1 °F 82% 29.96 in 10.0 mi South 5.8 mph - N/A   Clear
9:55 PM 77.4 °F - 72.1 °F 84% 29.96 in 10.0 mi South 6.9 mph - N/A   Clear
10:15 PM 77.0 °F - 72.5 °F 86% 29.96 in 10.0 mi SSW 4.6 mph - N/A   Clear
10:35 PM 76.8 °F - 72.7 °F 87% 29.96 in 10.0 mi South 5.8 mph - N/A   Clear
10:55 PM 76.3 °F - 72.7 °F 89% 29.97 in 10.0 mi South 4.6 mph - N/A   Clear
11:15 PM 76.1 °F - 72.9 °F 90% 29.97 in 10.0 mi South 4.6 mph - N/A   Clear
11:35 PM 76.1 °F - 72.7 °F 89% 29.97 in 10.0 mi South 6.9 mph - N/A   Clear
11:55 PM 75.7 °F - 72.5 °F 90% 29.99 in 10.0 mi South 6.9 mph - N/A   Clear